Location: Sungai Jaoh
(2.9167°N, 113.9167°E)
Time: 06:45:57
(UTC+00:00)

Landsat 5 - Pass Details

Date: 30 November 2020
Orbit: 528 x 654 km, 98.2° (Epoch: 25 January)

Event Time Altitude Azimuth Distance (km) Brightness Sun altitude
Rises 20:59:47 0° 172° (S) 2,660 7.2 -18.1°
Reaches altitude 10° 21:01:53 10° 174° (S) 1,772 6.3 -17.7°
Maximum altitude 21:05:40 70° 258° (WSW) 568 3.1 -16.8°
Enters shadow 21:08:15 20° 339° (NNW) 1,280 4.8 -16.2°
